Nederland, TX

11:12 AM CST on December 06, 2016 (GMT -0600)
Southeast Texas Regional

Weather History for KBPT - April, 2014

Change the Weather History Date:

Friday, April 18, 2014

  Actual Average Record
Temperature  
Mean Temperature 67 °F 69 °F  
Max Temperature 79 °F 79 °F 90 °F (1987)
Min Temperature 54 °F 60 °F 43 °F (1999)
Degree Days  
Heating Degree Days 0 1  
Month to date heating degree days 37 33  
Since 1 July heating degree days 1710 1394  
Cooling Degree Days 2 5  
Month to date cooling degree days 59 71  
Year to date cooling degree days 106 152  
Growing Degree Days 16 (Base 50)    
Moisture  
Dew Point 54 °F    
Average Humidity 69    
Maximum Humidity 93    
Minimum Humidity 45    
Precipitation  
Precipitation 0.00 in 0.11 in 4.70 in (2009)
Month to date precipitation 1.98 1.78  
Year to date precipitation 10.99 14.15  
Snow  
Snow 0.00 in 0.00 in 0.00 in ()
Month to date snowfall 0.0 0.0  
Since 1 July snowfall 0.3 T  
Snow Depth 0.00 in    
Sea Level Pressure  
Sea Level Pressure 30.13 in    
Wind  
Wind Speed 7 mph (North)    
Max Wind Speed 17 mph    
Max Gust Speed 22 mph    
Visibility 10 miles    
Events      
T = Trace of Precipitation, MM = Missing Value Source: NWS Daily Summary

Daily Weather History Graph

Daily Weather History Graph

Search for Another Location

Airport or City:

Trip Planner

Search our weather history database for the weather conditions in past years. The results will help you decide how hot, cold, wet, or windy it might be!

Date:

Astronomy

Apr. 18, 2014 Rise Set
Actual Time 6:46 AM CDT 7:45 PM CDT
Civil Twilight 6:21 AM CDT 8:09 PM CDT
Nautical Twilight 5:52 AM CDT 8:39 PM CDT
Astronomical Twilight 5:22 AM CDT 9:09 PM CDT
Moon 11:21 PM CDT (4/18) 9:18 AM CDT (4/18)
Length of Visible Light 13h 48m
Length of Day
12h 59m
Waning Gibbous, 87% of the Moon is Illuminated
Apr 18
Waning Gibbous
Apr 22
Last Quarter
Apr 29
New
May 6
First Quarter
May 14
Full

Hourly Weather History & Observations

Time (CDT) Temp. Dew Point Humidity Pressure Visibility Wind Dir Wind Speed Gust Speed Precip Events Conditions
12:53 AM 57.9 °F 53.1 °F 84% 30.14 in 10.0 mi NNE 8.1 mph - N/A   Scattered Clouds
1:53 AM 57.0 °F 53.1 °F 87% 30.13 in 10.0 mi NNE 8.1 mph - N/A   Partly Cloudy
2:53 AM 57.0 °F 53.1 °F 87% 30.12 in 10.0 mi North 8.1 mph - N/A   Mostly Cloudy
3:53 AM 55.9 °F 52.0 °F 87% 30.10 in 10.0 mi North 5.8 mph - N/A   Partly Cloudy
4:46 AM 55.9 °F 53.1 °F 90% 30.12 in 10.0 mi North 6.9 mph - N/A   Mostly Cloudy
4:53 AM 55.9 °F 53.1 °F 90% 30.12 in 10.0 mi North 5.8 mph - N/A   Mostly Cloudy
5:10 AM 55.9 °F 52.0 °F 87% 30.11 in 10.0 mi North 5.8 mph - N/A   Scattered Clouds
5:53 AM 55.0 °F 52.0 °F 89% 30.13 in 10.0 mi North 5.8 mph - N/A   Mostly Cloudy
6:53 AM 55.0 °F 52.0 °F 89% 30.14 in 9.0 mi North 5.8 mph - N/A   Scattered Clouds
7:53 AM 57.9 °F 53.1 °F 84% 30.16 in 10.0 mi North 4.6 mph - N/A   Mostly Cloudy
8:53 AM 60.1 °F 55.0 °F 83% 30.17 in 9.0 mi North 5.8 mph - N/A   Overcast
9:53 AM 64.0 °F 55.9 °F 75% 30.17 in 9.0 mi North 10.4 mph - N/A   Overcast
10:53 AM 69.1 °F 57.0 °F 65% 30.17 in 10.0 mi NNE 10.4 mph 20.7 mph N/A   Clear
11:20 AM 70.0 °F 57.0 °F 63% 30.17 in 10.0 mi North 11.5 mph - N/A   Mostly Cloudy
11:50 AM 69.8 °F 55.4 °F 60% 30.16 in 10.0 mi North 11.5 mph - N/A   Mostly Cloudy
11:53 AM 70.0 °F 55.9 °F 61% 30.16 in 10.0 mi North 10.4 mph - N/A   Mostly Cloudy
12:53 PM 75.0 °F 55.0 °F 50% 30.14 in 10.0 mi NNE 12.7 mph - N/A   Partly Cloudy
1:53 PM 77.0 °F 55.0 °F 47% 30.12 in 10.0 mi NNW 11.5 mph - N/A   Partly Cloudy
2:53 PM 75.9 °F 55.9 °F 50% 30.11 in 10.0 mi NNW 6.9 mph - N/A   Mostly Cloudy
3:53 PM 75.2 °F 55.4 °F 50% 30.09 in 10.0 mi North 3.5 mph - N/A   Scattered Clouds
4:53 PM 78.1 °F 55.0 °F 45% 30.08 in 10.0 mi NE 10.4 mph - N/A   Mostly Cloudy
5:53 PM 75.9 °F 55.0 °F 48% 30.07 in 10.0 mi NE 9.2 mph - N/A   Overcast
6:53 PM 73.9 °F 55.0 °F 52% 30.08 in 10.0 mi NNE 6.9 mph - N/A   Clear
7:53 PM 69.1 °F 55.0 °F 61% 30.10 in 10.0 mi North 4.6 mph - N/A   Partly Cloudy
8:53 PM 64.0 °F 55.9 °F 75% 30.12 in 10.0 mi NNE 3.5 mph - N/A   Clear
9:53 PM 66.2 °F 55.4 °F 68% 30.13 in 10.0 mi NNE 5.8 mph - N/A   Clear
10:53 PM 64.9 °F 55.9 °F 73% 30.13 in 10.0 mi NNE 5.8 mph - N/A   Clear
11:53 PM 64.9 °F 57.0 °F 75% 30.14 in 10.0 mi NE 8.1 mph - N/A   Clear